TimeCST,TemperatureF,Dew PointF,Humidity,Sea Level PressureIn,VisibilityMPH,Wind Direction,Wind SpeedMPH,Gust SpeedMPH,PrecipitationIn,Events,Conditions,WindDirDegrees,DateUTC
12:00 AM,37.4,35.6,93,30.05,1.8,ESE,3.5,-,0.02,Rain,Rain,120,2013-01-01 06:00:00
12:08 AM,37.4,35.6,93,30.05,2.5,ESE,3.5,-,0.03,Rain,Light Rain,120,2013-01-01 06:08:00
12:22 AM,37.4,35.6,93,30.05,2.5,SE,3.5,-,0.04,Rain,Light Rain,130,2013-01-01 06:22:00
12:28 AM,37.4,35.6,93,30.04,2.0,ESE,4.6,-,0.06,Rain,Rain,120,2013-01-01 06:28:00
12:38 AM,37.4,35.6,93,30.05,3.0,Calm,Calm,-,0.07,Rain,Light Rain,0,2013-01-01 06:38:00
12:53 AM,37.9,36.0,93,30.06,4.0,Calm,Calm,-,0.07,Rain,Light Rain,0,2013-01-01 06:53:00
1:53 AM,37.9,36.0,93,30.07,3.0,Calm,Calm,-,0.03,,Overcast,0,2013-01-01 07:53:00
2:32 AM,37.4,35.6,93,30.06,2.5,North,3.5,-,N/A,,Overcast,10,2013-01-01 08:32:00
2:53 AM,37.9,36.0,93,30.07,1.8,Calm,Calm,-,N/A,,Overcast,0,2013-01-01 08:53:00
3:14 AM,37.4,35.6,93,30.06,2.0,Calm,Calm,-,N/A,,Overcast,0,2013-01-01 09:14:00
3:33 AM,37.4,35.6,93,30.06,1.8,Calm,Calm,-,N/A,,Overcast,0,2013-01-01 09:33:00
3:53 AM,37.9,36.0,93,30.07,1.8,Calm,Calm,-,N/A,,Overcast,0,2013-01-01 09:53:00
4:53 AM,37.9,36.0,93,30.06,1.5,NNE,3.5,-,N/A,,Overcast,20,2013-01-01 10:53:00
5:53 AM,37.9,36.0,93,30.09,1.5,Calm,Calm,-,N/A,,Overcast,0,2013-01-01 11:53:00
6:06 AM,37.4,35.6,93,30.08,2.0,Calm,Calm,-,N/A,,Overcast,0,2013-01-01 12:06:00
6:22 AM,37.4,35.6,93,30.07,4.0,NNE,4.6,-,N/A,,Overcast,20,2013-01-01 12:22:00
6:37 AM,37.4,35.6,93,30.07,2.0,North,4.6,-,N/A,,Overcast,10,2013-01-01 12:37:00
6:46 AM,37.4,35.6,93,30.09,1.5,North,3.5,-,N/A,,Overcast,360,2013-01-01 12:46:00
6:53 AM,37.9,36.0,93,30.10,1.5,Variable,4.6,-,N/A,,Overcast,0,2013-01-01 12:53:00
7:00 AM,37.4,35.6,93,30.08,1.2,NNE,4.6,-,N/A,,Overcast,20,2013-01-01 13:00:00
7:22 AM,37.4,35.6,93,30.09,1.5,North,5.8,-,N/A,,Overcast,10,2013-01-01 13:22:00
7:29 AM,37.4,35.6,93,30.08,0.8,NNE,5.8,-,N/A,,Overcast,30,2013-01-01 13:29:00
7:44 AM,37.4,37.4,100,30.09,1.2,North,4.6,-,N/A,,Overcast,10,2013-01-01 13:44:00
7:49 AM,37.4,35.6,93,30.09,2.0,North,3.5,-,N/A,,Overcast,10,2013-01-01 13:49:00
7:53 AM,37.9,37.0,97,30.10,2.5,NNE,4.6,-,N/A,,Overcast,20,2013-01-01 13:53:00
8:12 AM,37.4,37.4,100,30.08,3.0,NE,4.6,-,N/A,,Overcast,50,2013-01-01 14:12:00
8:53 AM,37.9,37.0,97,30.10,5.0,NNE,5.8,-,N/A,,Overcast,20,2013-01-01 14:53:00
9:53 AM,37.9,36.0,93,30.11,9.0,North,5.8,-,N/A,,Overcast,10,2013-01-01 15:53:00
10:12 AM,39.2,35.6,87,30.10,9.0,NNE,4.6,-,N/A,,Overcast,20,2013-01-01 16:12:00
10:53 AM,39.0,36.0,89,30.11,7.0,North,4.6,-,N/A,,Overcast,10,2013-01-01 16:53:00
11:53 AM,39.0,36.0,89,30.10,8.0,NNW,3.5,-,N/A,,Overcast,330,2013-01-01 17:53:00
12:53 PM,39.0,36.0,89,30.09,10.0,North,3.5,-,N/A,,Overcast,350,2013-01-01 18:53:00
1:53 PM,39.9,36.0,86,30.08,10.0,North,4.6,-,N/A,,Overcast,360,2013-01-01 19:53:00
2:53 PM,39.0,34.0,82,30.06,10.0,Variable,3.5,-,N/A,,Overcast,0,2013-01-01 20:53:00
3:53 PM,39.0,35.1,86,30.09,10.0,North,5.8,-,N/A,,Overcast,360,2013-01-01 21:53:00
4:53 PM,37.9,34.0,86,30.10,10.0,North,4.6,-,N/A,,Overcast,360,2013-01-01 22:53:00
5:30 PM,37.4,33.8,87,30.10,10.0,North,4.6,-,N/A,,Overcast,350,2013-01-01 23:30:00
5:53 PM,37.9,33.1,83,30.10,10.0,NNW,3.5,-,N/A,,Overcast,340,2013-01-01 23:53:00
6:49 PM,37.4,33.8,87,30.12,6.0,NNW,5.8,-,N/A,,Overcast,330,2013-01-02 00:49:00
6:53 PM,36.0,33.1,89,30.13,6.0,NNW,6.9,-,N/A,,Overcast,340,2013-01-02 00:53:00
7:24 PM,35.6,33.8,93,30.13,3.0,NW,8.1,-,N/A,,Overcast,320,2013-01-02 01:24:00
7:43 PM,35.6,33.8,93,30.14,2.5,NNW,8.1,-,N/A,,Overcast,330,2013-01-02 01:43:00
7:53 PM,35.1,33.1,92,30.15,2.5,NW,5.8,-,N/A,,Overcast,310,2013-01-02 01:53:00
8:24 PM,33.8,32.0,93,30.14,1.5,NW,9.2,-,N/A,,Overcast,320,2013-01-02 02:24:00
8:31 PM,33.8,30.2,87,30.14,1.0,NW,10.4,-,N/A,,Overcast,310,2013-01-02 02:31:00
8:53 PM,33.1,30.9,92,30.16,1.5,WNW,8.1,-,N/A,,Overcast,300,2013-01-02 02:53:00
9:14 PM,33.8,30.2,87,30.15,2.0,NW,9.2,-,N/A,,Overcast,310,2013-01-02 03:14:00
9:40 PM,32.0,30.2,93,30.16,3.0,NW,8.1,-,N/A,,Overcast,320,2013-01-02 03:40:00
9:53 PM,32.0,30.0,92,30.17,3.0,NW,8.1,-,N/A,,Overcast,320,2013-01-02 03:53:00
10:50 PM,32.0,28.4,87,30.17,4.0,NW,4.6,-,N/A,,Overcast,320,2013-01-02 04:50:00
10:53 PM,32.0,30.0,92,30.18,4.0,NW,4.6,-,N/A,,Overcast,310,2013-01-02 04:53:00
11:53 PM,32.0,28.0,85,30.17,4.0,NW,5.8,-,N/A,,Overcast,320,2013-01-02 05:53:00